Voltar ao catálogo

KUIPER-00028

AtivoComunicaçõesLEO
NORAD 63741·PAYLOAD·🇺🇸 United States

Lançado Apr 28, 2025 de Cape Canaveral Space Force Station

Loading…

Próximas Passagens (próximas 24 horas)

TLE

AtualizadoSource: CelesTrak SupGP

Época: Sep 14, 2026, 21:33 UTC

1 63741C 25088T   26257.89800926  .00001277  00000+0  16715-3 0  2574
2 63741  51.9002 336.3682 0000234 103.0328 163.9817 14.79920954    13

Acompanhe KUIPER-00028 em tempo real com AllMySat

Download on the App Store